Location: Bou Ouachlou
(32.7770°N, 5.6009°W)
Time: 17:55:36
(UTC+00:00)

SL-16 R/B - Pass Details

Date: 07 June 2020
Orbit: 842 x 846 km, 71.0° (Epoch: 01 July)

Event Time Altitude Azimuth Distance (km) Brightness Sun altitude
Exits shadow 03:46:29 - 281° (WNW) 2,645 4.4 -16.0°
Reaches altitude 10° 03:48:16 10° 299° (WNW) 2,465 4.4 -15.7°
Maximum altitude 03:49:04 10° 307° (NW) 2,446 4.5 -15.6°
Drops below altitude 10° 03:49:53 10° 315° (NW) 2,467 4.6 -15.4°
Sets 03:55:11 0° 357° (N) 3,408 5.9 -14.6°
